TimePST,TemperatureF,Dew PointF,Humidity,Sea Level PressureIn,VisibilityMPH,Wind Direction,Wind SpeedMPH,Gust SpeedMPH,PrecipitationIn,Events,Conditions,WindDirDegrees,DateUTC
12:15 AM,37.4,32.0,81,30.35,10.0,SW,4.6,-,N/A,,Clear,220,2014-01-15 08:15:00
12:35 AM,39.2,32.0,75,30.35,10.0,Calm,Calm,-,N/A,,Partly Cloudy,0,2014-01-15 08:35:00
12:55 AM,39.2,32.0,75,30.34,10.0,SW,8.1,-,N/A,,Partly Cloudy,220,2014-01-15 08:55:00
1:10 AM,39.2,32.0,75,30.33,10.0,SSW,9.2,-,N/A,,Partly Cloudy,210,2014-01-15 09:10:00
1:30 AM,39.2,32.0,75,30.32,10.0,SW,10.4,16.1,N/A,,Clear,220,2014-01-15 09:30:00
1:50 AM,39.2,32.0,75,30.32,10.0,SSW,8.1,-,N/A,,Clear,210,2014-01-15 09:50:00
2:10 AM,39.2,32.0,75,30.34,10.0,SW,11.5,19.6,N/A,,Clear,220,2014-01-15 10:10:00
2:30 AM,39.2,32.0,75,30.36,10.0,SW,6.9,20.7,N/A,,Clear,230,2014-01-15 10:30:00
2:50 AM,39.2,32.0,75,30.36,10.0,WSW,9.2,-,N/A,,Clear,240,2014-01-15 10:50:00
3:10 AM,39.2,32.0,75,30.36,10.0,SW,10.4,19.6,N/A,,Clear,220,2014-01-15 11:10:00
3:30 AM,39.2,32.0,75,30.35,10.0,SSW,11.5,18.4,N/A,,Clear,210,2014-01-15 11:30:00
3:50 AM,37.4,32.0,81,30.35,10.0,SSW,6.9,-,N/A,,Clear,210,2014-01-15 11:50:00
4:10 AM,37.4,32.0,81,30.36,10.0,SSW,8.1,-,N/A,,Clear,210,2014-01-15 12:10:00
4:30 AM,37.4,32.0,81,30.35,10.0,SW,9.2,17.3,N/A,,Clear,230,2014-01-15 12:30:00
4:50 AM,37.4,32.0,81,30.37,10.0,WSW,12.7,-,N/A,,Clear,250,2014-01-15 12:50:00
5:10 AM,37.4,32.0,81,30.36,10.0,SW,8.1,16.1,N/A,,Clear,230,2014-01-15 13:10:00
5:30 AM,37.4,32.0,81,30.35,10.0,SW,8.1,16.1,N/A,,Clear,230,2014-01-15 13:30:00
5:50 AM,37.4,32.0,81,30.37,10.0,South,3.5,-,N/A,,Clear,190,2014-01-15 13:50:00
6:10 AM,37.4,32.0,81,30.37,10.0,SW,4.6,-,N/A,,Clear,230,2014-01-15 14:10:00
6:30 AM,35.6,32.0,87,30.37,10.0,SSW,3.5,-,N/A,,Clear,200,2014-01-15 14:30:00
6:50 AM,35.6,32.0,87,30.37,10.0,SSW,4.6,-,N/A,,Clear,210,2014-01-15 14:50:00
7:10 AM,35.6,32.0,87,30.38,10.0,Calm,Calm,-,N/A,,Clear,0,2014-01-15 15:10:00
7:30 AM,35.6,32.0,87,30.37,10.0,South,4.6,-,N/A,,Partly Cloudy,190,2014-01-15 15:30:00
7:50 AM,33.8,32.0,93,30.38,10.0,Calm,Calm,-,N/A,,Clear,0,2014-01-15 15:50:00
8:10 AM,33.8,32.0,93,30.39,10.0,Calm,Calm,-,N/A,,Clear,0,2014-01-15 16:10:00
8:35 AM,32.0,30.2,93,30.40,10.0,Calm,Calm,-,N/A,,Clear,0,2014-01-15 16:35:00
8:50 AM,35.6,32.0,87,30.40,10.0,Calm,Calm,-,N/A,,Clear,0,2014-01-15 16:50:00
9:10 AM,37.4,32.0,81,30.41,10.0,Calm,Calm,-,N/A,,Clear,0,2014-01-15 17:10:00
9:30 AM,37.4,32.0,81,30.41,10.0,Calm,Calm,-,N/A,,Clear,0,2014-01-15 17:30:00
9:50 AM,37.4,32.0,81,30.41,10.0,Calm,Calm,-,N/A,,Clear,0,2014-01-15 17:50:00
10:10 AM,37.4,32.0,81,30.41,10.0,Calm,Calm,-,N/A,,Clear,0,2014-01-15 18:10:00
10:30 AM,39.2,32.0,75,30.41,10.0,South,4.6,-,N/A,,Clear,190,2014-01-15 18:30:00
10:50 AM,39.2,32.0,75,30.41,10.0,SE,3.5,-,N/A,,Clear,140,2014-01-15 18:50:00
11:10 AM,39.2,32.0,75,30.40,10.0,SE,3.5,-,N/A,,Clear,130,2014-01-15 19:10:00
11:30 AM,41.0,32.0,70,30.40,10.0,ENE,3.5,-,N/A,,Clear,70,2014-01-15 19:30:00
11:50 AM,41.0,32.0,70,30.39,10.0,Calm,Calm,-,N/A,,Clear,0,2014-01-15 19:50:00
12:10 PM,41.0,32.0,70,30.39,10.0,Calm,Calm,-,N/A,,Clear,0,2014-01-15 20:10:00
12:30 PM,42.8,32.0,66,30.40,10.0,Calm,Calm,-,N/A,,Clear,0,2014-01-15 20:30:00
12:50 PM,42.8,32.0,66,30.40,10.0,Calm,Calm,-,N/A,,Clear,0,2014-01-15 20:50:00
1:10 PM,42.8,32.0,66,30.40,10.0,Calm,Calm,-,N/A,,Clear,0,2014-01-15 21:10:00
1:30 PM,44.6,32.0,61,30.40,10.0,WSW,3.5,-,N/A,,Clear,240,2014-01-15 21:30:00
1:50 PM,44.6,32.0,61,30.40,10.0,WSW,4.6,-,N/A,,Clear,240,2014-01-15 21:50:00
2:10 PM,44.6,32.0,61,30.39,10.0,SW,6.9,-,N/A,,Clear,220,2014-01-15 22:10:00
2:30 PM,42.8,32.0,66,30.39,10.0,WSW,8.1,16.1,N/A,,Clear,240,2014-01-15 22:30:00
2:50 PM,41.0,32.0,70,30.40,10.0,SSW,4.6,-,N/A,,Clear,210,2014-01-15 22:50:00
3:10 PM,41.0,32.0,70,30.40,10.0,SW,5.8,-,N/A,,Clear,230,2014-01-15 23:10:00
3:30 PM,41.0,32.0,70,30.41,10.0,WSW,8.1,-,N/A,,Clear,240,2014-01-15 23:30:00
3:50 PM,41.0,32.0,70,30.42,10.0,SW,8.1,-,N/A,,Clear,230,2014-01-15 23:50:00
4:10 PM,39.2,32.0,75,30.43,10.0,WSW,8.1,-,N/A,,Clear,250,2014-01-16 00:10:00
4:30 PM,39.2,32.0,75,30.43,10.0,WSW,5.8,-,N/A,,Clear,240,2014-01-16 00:30:00
4:50 PM,39.2,32.0,75,30.43,10.0,SSW,4.6,-,N/A,,Clear,210,2014-01-16 00:50:00
5:10 PM,39.2,32.0,75,30.42,10.0,SW,5.8,-,N/A,,Clear,220,2014-01-16 01:10:00
5:35 PM,39.2,32.0,75,30.43,10.0,SSW,3.5,-,N/A,,Clear,210,2014-01-16 01:35:00
5:50 PM,39.2,32.0,75,30.42,10.0,SW,3.5,-,N/A,,Clear,220,2014-01-16 01:50:00
6:10 PM,39.2,32.0,75,30.43,10.0,SW,3.5,-,N/A,,Clear,230,2014-01-16 02:10:00
6:30 PM,35.6,32.0,87,30.43,10.0,Calm,Calm,-,N/A,,Clear,0,2014-01-16 02:30:00
6:50 PM,33.8,32.0,93,30.44,10.0,Calm,Calm,-,N/A,,Clear,0,2014-01-16 02:50:00
7:10 PM,32.0,32.0,100,30.44,10.0,Calm,Calm,-,N/A,,Clear,0,2014-01-16 03:10:00
7:30 PM,33.8,32.0,93,30.45,10.0,Calm,Calm,-,N/A,,Clear,0,2014-01-16 03:30:00
7:50 PM,32.0,32.0,100,30.45,10.0,Calm,Calm,-,N/A,,Clear,0,2014-01-16 03:50:00
8:10 PM,32.0,28.4,87,30.45,10.0,Calm,Calm,-,N/A,,Clear,0,2014-01-16 04:10:00
8:30 PM,32.0,30.2,93,30.46,10.0,Calm,Calm,-,N/A,,Clear,0,2014-01-16 04:30:00
8:50 PM,32.0,28.4,87,30.47,10.0,Calm,Calm,-,N/A,,Clear,0,2014-01-16 04:50:00
9:10 PM,32.0,30.2,93,30.47,10.0,NE,3.5,-,N/A,,Clear,50,2014-01-16 05:10:00
9:30 PM,30.2,28.4,93,30.48,10.0,Calm,Calm,-,N/A,,Clear,0,2014-01-16 05:30:00
9:50 PM,32.0,30.2,93,30.48,10.0,Calm,Calm,-,N/A,,Clear,0,2014-01-16 05:50:00
10:10 PM,30.2,28.4,93,30.49,9.0,Calm,Calm,-,N/A,,Clear,0,2014-01-16 06:10:00
10:30 PM,30.2,28.4,93,30.49,7.0,Calm,Calm,-,N/A,,Clear,0,2014-01-16 06:30:00
10:50 PM,30.2,28.4,93,30.49,8.0,Calm,Calm,-,N/A,,Clear,0,2014-01-16 06:50:00
11:10 PM,30.2,28.4,93,30.49,9.0,Calm,Calm,-,N/A,,Clear,0,2014-01-16 07:10:00
11:30 PM,30.2,28.4,93,30.49,9.0,Calm,Calm,-,N/A,,Clear,0,2014-01-16 07:30:00
11:50 PM,28.4,26.6,93,30.49,10.0,Calm,Calm,-,N/A,,Clear,0,2014-01-16 07:50:00